| time (UTC) | temp C | wind direction | speed KPH | gust KPH | rain 1hr cm | rain 24hr cm | rain mn cm | humidity % | barometer mb |
| 20260506134534 | 10 | 199 | 0.0 | 6.4 | 0.00 | 0.00 | 0.00 | 90 | 1019.0 |
| 20260506133021 | 10 | 195 | 0.0 | 3.2 | 0.00 | 0.00 | 0.00 | 90 | 1018.9 |
| 20260506131526 | 10 | 195 | 0.0 | 6.4 | 0.00 | 0.00 | 0.00 | 90 | 1018.8 |
| 20260506130007 | 10 | 198 | 1.6 | 6.4 | 0.00 | 0.00 | 0.00 | 90 | 1018.6 |
| 20260506124513 | 10 | 201 | 0.0 | 6.4 | 0.00 | 0.00 | 0.00 | 90 | 1018.6 |
| 20260506123011 | 10 | 217 | 1.6 | 9.7 | 0.00 | 0.00 | 0.00 | 90 | 1018.6 |
| 20260506121514 | 10 | 209 | 4.8 | 14.5 | 0.00 | 0.00 | 0.00 | 89 | 1018.7 |
| 20260506120011 | 10 | 203 | 3.2 | 8.0 | 0.00 | 0.00 | 0.00 | 89 | 1018.6 |
| 20260506114521 | 10 | 210 | 3.2 | 6.4 | 0.00 | 0.00 | 0.00 | 89 | 1018.5 |
| 20260506113015 | 10 | 215 | 0.0 | 4.8 | 0.00 | 0.00 | 0.00 | 89 | 1018.2 |
| 20260506111517 | 10 | 242 | 3.2 | 9.7 | 0.00 | 0.00 | 0.00 | 90 | 1018.2 |
| 20260506110009 | 10 | 217 | 0.0 | 9.7 | 0.00 | 0.00 | 0.00 | 90 | 1018.1 |
| 20260506104514 | 10 | 225 | 3.2 | 16.1 | 0.00 | 0.00 | 0.00 | 90 | 1017.9 |
| 20260506103024 | 10 | 222 | 0.0 | 6.4 | 0.00 | 0.00 | 0.00 | 90 | 1017.7 |
| 20260506101520 | 10 | 215 | 0.0 | 6.4 | 0.00 | 0.00 | 0.00 | 90 | 1017.5 |
| 20260506100006 | 10 | 230 | 0.0 | 3.2 | 0.00 | 0.00 | 0.00 | 90 | 1017.4 |
| 20260506094515 | 10 | 240 | 1.6 | 4.8 | 0.00 | 0.00 | 0.00 | 90 | 1017.4 |
| 20260506093011 | 10 | 214 | 0.0 | 3.2 | 0.00 | 0.00 | 0.00 | 90 | 1017.5 |
| 20260506091523 | 10 | 231 | 1.6 | 8.0 | 0.00 | 0.00 | 0.00 | 90 | 1017.4 |
| 20260506090006 | 10 | 189 | 0.0 | 8.0 | 0.00 | 0.00 | 0.00 | 90 | 1017.4 |
| 20260506084510 | 10 | 200 | 1.6 | 9.7 | 0.00 | 0.00 | 0.00 | 90 | 1017.4 |
| 20260506083013 | 10 | 233 | 1.6 | 9.7 | 0.00 | 0.00 | 0.00 | 91 | 1017.4 |
| 20260506081522 | 10 | 201 | 4.8 | 9.7 | 0.00 | 0.00 | 0.00 | 91 | 1017.2 |
| 20260506073012 | 8 | 192 | 0.0 | 0.0 | 0.00 | 0.00 | 0.00 | 92 | 1016.9 |
| 20260506071515 | 7 | 193 | 0.0 | 0.0 | 0.00 | 0.00 | 0.00 | 91 | 1016.7 |
| 20260506070127 | 7 | 193 | 0.0 | 0.0 | 0.00 | 0.00 | 0.00 | 91 | 1016.7 |
| 20260506061523 | 8 | 193 | 0.0 | 0.0 | 0.00 | 0.00 | 0.00 | 91 | 1016.4 |
| 20260506044518 | 10 | 221 | 4.8 | 12.9 | 0.00 | 0.00 | 0.00 | 90 | 1016.3 |
| 20260506043017 | 10 | 191 | 3.2 | 9.7 | 0.00 | 0.00 | 0.00 | 90 | 1016.1 |
| 20260506041534 | 10 | 200 | 6.4 | 16.1 | 0.00 | 0.00 | 0.00 | 90 | 1015.8 |
| 20260506040034 | 10 | 198 | 3.2 | 11.3 | 0.00 | 0.00 | 0.00 | 89 | 1015.6 |
| 20260506034519 | 10 | 195 | 1.6 | 9.7 | 0.00 | 0.00 | 0.00 | 89 | 1015.3 |
| 20260506033022 | 10 | 238 | 3.2 | 9.7 | 0.00 | 0.00 | 0.00 | 88 | 1015.1 |
| 20260506031531 | 11 | 200 | 3.2 | 11.3 | 0.00 | 0.00 | 0.00 | 87 | 1015.0 |
| 20260506030013 | 11 | 183 | 4.8 | 12.9 | 0.00 | 0.00 | 0.00 | 86 | 1015.1 |
| 20260506024532 | 11 | 229 | 4.8 | 14.5 | 0.00 | 0.00 | 0.00 | 85 | 1015.1 |
| 20260506023026 | 12 | 243 | 4.8 | 24.1 | 0.00 | 0.00 | 0.00 | 84 | 1015.1 |
| 20260506021531 | 12 | 213 | 4.8 | 17.7 | 0.00 | 0.00 | 0.00 | 82 | 1015.0 |
| 20260506020034 | 13 | 225 | 8.0 | 16.1 | 0.00 | 0.00 | 0.00 | 81 | 1015.2 |
| 20260506014522 | 13 | 186 | 4.8 | 16.1 | 0.00 | 0.00 | 0.00 | 81 | 1015.0 |
| 20260506013027 | 13 | 219 | 6.4 | 16.1 | 0.00 | 0.00 | 0.00 | 80 | 1015.2 |
| 20260506011557 | 13 | 185 | 4.8 | 19.3 | 0.00 | 0.00 | 0.00 | 80 | 1015.2 |
| 20260506010144 | 13 | 223 | 8.0 | 17.7 | 0.00 | 0.00 | 0.00 | 79 | 1015.1 |
| 20260506004532 | 14 | 271 | 6.4 | 22.5 | 0.00 | 0.00 | 0.00 | 79 | 1015.3 |
| 20260506003033 | 13 | 200 | 4.8 | 19.3 | 0.00 | 0.00 | 0.00 | 81 | 1015.3 |
| 20260506001542 | 13 | 196 | 8.0 | 20.9 | 0.00 | 0.00 | 0.00 | 81 | 1015.3 |
| 20260506000105 | 13 | 186 | 11.3 | 24.1 | 0.00 | 0.00 | 0.00 | 80 | 1015.5 |
| 20260505234537 | 14 | 262 | 4.8 | 22.5 | 0.00 | 0.00 | 0.00 | 81 | 1015.7 |
| 20260505233027 | 14 | 215 | 8.0 | 19.3 | 0.00 | 0.00 | 0.00 | 80 | 1015.8 |
| 20260505231529 | 14 | 157 | 6.4 | 16.1 | 0.00 | 0.00 | 0.00 | 80 | 1015.9 |
| 20260505230037 | 14 | 192 | 8.0 | 16.1 | 0.00 | 0.00 | 0.00 | 79 | 1016.0 |
| 20260505224502 | 15 | 212 | 8.0 | 16.1 | 0.00 | 0.00 | 0.00 | 79 | 1016.1 |
| 20260505223005 | 15 | 176 | 8.0 | 14.5 | 0.00 | 0.00 | 0.00 | 77 | 1016.1 |
| 20260505221521 | 15 | 224 | 4.8 | 11.3 | 0.00 | 0.00 | 0.00 | 80 | 1016.3 |
| 20260505220003 | 15 | 226 | 3.2 | 9.7 | 0.00 | 0.00 | 0.00 | 81 | 1016.4 |
| 20260505214509 | 15 | 229 | 4.8 | 12.9 | 0.00 | 0.00 | 0.00 | 81 | 1016.4 |
| 20260505213008 | 14 | 191 | 4.8 | 12.9 | 0.00 | 0.00 | 0.00 | 83 | 1016.5 |
| 20260505211521 | 14 | 198 | 8.0 | 12.9 | 0.00 | 0.00 | 0.00 | 80 | 1016.5 |
| 20260505210118 | 15 | 197 | 4.8 | 9.7 | 0.00 | 0.00 | 0.00 | 83 | 1016.5 |
| 20260505204509 | 14 | 196 | 3.2 | 9.7 | 0.00 | 0.00 | 0.00 | 84 | 1016.6 |
| 20260505203014 | 14 | 202 | 0.0 | 6.4 | 0.00 | 0.00 | 0.00 | 84 | 1016.6 |
| 20260505201533 | 13 | 179 | 1.6 | 6.4 | 0.00 | 0.00 | 0.00 | 84 | 1016.7 |
| 20260505200037 | 13 | 214 | 1.6 | 6.4 | 0.00 | 0.00 | 0.00 | 83 | 1016.7 |
| 20260505194531 | 13 | 252 | 0.0 | 8.0 | 0.00 | 0.00 | 0.00 | 85 | 1016.6 |
| 20260505193027 | 13 | 244 | 3.2 | 8.0 | 0.00 | 0.00 | 0.00 | 84 | 1016.6 |
| 20260505191530 | 12 | 220 | 0.0 | 4.8 | 0.00 | 0.00 | 0.00 | 87 | 1016.6 |
| 20260505190038 | 12 | 200 | 3.2 | 4.8 | 0.00 | 0.00 | 0.00 | 88 | 1016.6 |
| 20260505184524 | 12 | 193 | 0.0 | 6.4 | 0.00 | 0.00 | 0.00 | 88 | 1016.6 |
| 20260505183022 | 12 | 222 | 0.0 | 3.2 | 0.00 | 0.00 | 0.00 | 89 | 1016.6 |
| 20260505181525 | 12 | 238 | 3.2 | 6.4 | 0.00 | 0.00 | 0.00 | 89 | 1016.6 |
| 20260505180007 | 12 | 261 | 0.0 | 4.8 | 0.00 | 0.00 | 0.00 | 90 | 1016.5 |
| 20260505174511 | 11 | 197 | 0.0 | 3.2 | 0.00 | 0.00 | 0.00 | 91 | 1016.3 |
| 20260505173014 | 11 | 238 | 0.0 | 3.2 | 0.00 | 0.00 | 0.00 | 91 | 1016.2 |
| 20260505171517 | 11 | 264 | 0.0 | 3.2 | 0.00 | 0.00 | 0.00 | 91 | 1016.2 |
| 20260505170011 | 11 | 240 | 0.0 | 3.2 | 0.00 | 0.00 | 0.00 | 92 | 1016.2 |
| 20260505164515 | 11 | 237 | 1.6 | 6.4 | 0.00 | 0.00 | 0.00 | 92 | 1016.2 |
| 20260505163020 | 11 | 245 | 0.0 | 6.4 | 0.00 | 0.00 | 0.00 | 92 | 1016.2 |
| 20260505161532 | 11 | 227 | 0.0 | 4.8 | 0.00 | 0.00 | 0.00 | 92 | 1016.1 |
| 20260505153031 | 10 | 217 | 0.0 | 6.4 | 0.00 | 0.00 | 0.00 | 92 | 1015.9 |
| 20260505151535 | 10 | 210 | 0.0 | 3.2 | 0.00 | 0.00 | 0.00 | 92 | 1015.7 |